Wind_Speed
4 4 3 3 2 3 4 5 5 5 5 5 5 5 5 5 6 6 6 6 7 7 7 7 8 8 8 8 8 8 7 7 7 7 8 8 8 8 8 7 7 7 7 7 7 7 6 7 7
2 2 2 2 2 3 4 5 5 5 6 6 6 6 6 6 6 7 7 8 8 8 8 8 8 9 9 9 9 9 9 8 8 8 9 9 9 9 9 8 7 7 8 7 8 7 7 7 7
1 2 2 2 3 4 4 5 5 6 6 6 7 7 7 7 7 7 8 8 8 8 9 9 9 9 9 10 10 9 9 9 9 10 9 9 9 9 9 9 9 9 9 8 8 9 8 8 8
2 2 2 2 3 4 4 5 5 6 7 7 7 8 8 8 7 7 8 8 8 9 9 9 9 9 10 10 9 9 9 10 10 10 10 10 9 9 9 9 10 10 10 9 9 9 9 9 9
2 2 2 2 3 4 5 5 6 6 7 8 8 8 8 8 8 8 8 8 8 8 9 9 9 9 10 10 9 9 9 10 10 10 10 10 10 9 9 10 10 10 10 10 9 10 10 10 10
3 2 2 3 3 5 6 6 7 7 8 8 8 9 8 9 9 8 8 8 8 8 8 8 9 9 9 9 9 10 10 10 10 10 10 10 10 10 10 10 11 10 10 10 10 10 11 11 10
3 3 3 4 4 5 6 6 7 7 8 8 9 10 9 9 10 9 9 9 9 9 9 9 9 9 9 9 9 10 10 10 10 11 10 10 10 10 10 11 11 11 10 9 10 10 11 11 10
4 4 4 4 5 6 6 6 7 7 8 9 10 10 10 10 11 10 9 9 9 9 9 10 9 9 9 9 10 10 11 10 11 10 10 9 9 9 10 10 10 10 10 10 10 10 10 10 11
5 5 5 5 6 7 7 7 7 8 8 9 9 10 11 11 11 10 10 10 9 9 9 10 9 8 9 9 10 10 10 10 11 10 10 9 9 9 9 9 9 10 10 10 10 10 11 11 11
5 5 5 6 6 7 7 8 8 8 9 9 10 10 11 11 10 10 11 11 10 9 10 9 10 9 9 10 10 10 9 10 10 10 10 9 9 9 9 9 9 9 10 10 10 10 11 12 12
7 6 6 6 7 7 7 8 9 9 9 10 10 11 11 11 11 11 11 11 10 10 10 9 9 9 10 10 10 10 10 10 10 10 10 9 9 9 10 10 10 9 9 9 10 11 11 11 12
8 7 7 7 7 8 8 9 9 10 10 11 11 11 11 11 12 11 11 11 11 10 10 10 10 10 10 10 10 10 10 10 10 10 9 9 9 9 10 9 9 9 9 9 9 10 10 10 11
9 9 8 8 8 8 8 9 10 11 11 12 12 12 12 11 12 11 11 11 10 10 10 10 10 10 10 10 10 10 10 10 10 10 9 9 9 9 10 10 10 9 9 9 9 9 10 10 10
10 10 10 9 9 9 10 11 11 11 12 12 12 12 12 12 12 11 11 10 10 10 10 10 10 10 10 10 10 10 10 10 11 10 10 9 9 10 10 10 9 9 9 9 9 10 9 9 9
10 10 10 10 10 10 11 11 11 11 12 12 12 12 12 12 12 11 11 10 10 10 9 9 9 10 10 9 9 10 10 10 11 11 11 10 9 9 9 9 9 9 9 9 9 9 9 8 8
11 11 11 10 11 11 12 11 11 11 12 12 12 11 11 12 12 12 11 11 10 9 9 9 9 10 10 11 10 10 9 9 9 10 10 9 9 9 9 9 9 9 9 8 9 9 9 9 9
11 11 12 11 11 12 12 12 12 12 12 12 12 12 12 12 12 12 12 11 10 10 10 10 10 10 11 11 11 11 10 9 9 9 9 9 9 9 9 9 9 8 9 8 8 8 9 9 9
12 13 13 14 13 14 14 14 14 13 13 13 13 12 12 12 12 12 12 11 11 11 11 10 10 11 12 12 12 11 10 10 9 9 8 9 9 8 8 8 8 8 8 8 8 8 8 8 9
14 15 15 16 15 15 15 15 15 15 15 14 13 13 13 12 12 12 12 11 11 11 11 11 11 11 12 11 11 11 10 10 9 9 9 8 8 8 8 8 8 8 8 8 8 8 8 8 8
15 16 16 17 16 16 15 16 16 15 15 15 14 14 14 13 13 12 12 11 11 11 11 11 12 12 12 11 10 10 10 10 9 9 9 8 8 8 8 9 9 9 9 9 8 8 8 8 8
15 16 16 17 16 16 16 16 16 16 15 15 15 15 14 13 13 13 12 12 12 12 12 12 12 12 12 12 11 11 10 9 8 8 8 8 8 8 8 8 9 9 9 8 8 8 7 7 7
15 15 15 16 16 16 16 17 17 17 16 16 16 16 15 14 14 13 13 12 13 13 13 12 12 12 12 12 12 11 10 9 9 9 8 9 9 9 8 8 8 8 8 8 8 7 7 7 7
15 14 14 15 15 15 16 17 17 18 18 17 16 16 16 15 14 14 13 13 13 13 13 13 13 13 12 12 12 10 10 10 9 9 9 9 8 8 8 8 8 8 8 8 8 8 8 7 7
14 14 13 14 14 15 15 16 16 18 18 18 17 17 16 16 15 15 14 14 14 13 14 14 13 13 13 13 12 11 10 10 9 9 9 9 9 8 8 8 9 9 8 8 8 8 7 7 8
14 13 13 13 13 14 15 16 17 19 19 19 18 18 17 16 16 16 15 15 15 14 14 14 14 14 14 13 13 12 11 11 10 9 9 9 9 9 9 9 9 9 9 9 8 8 8 7 7
15 15 14 13 12 14 17 18 19 18 18 19 18 18 18 18 17 17 17 16 16 15 15 15 14 14 14 14 13 13 12 12 11 10 10 10 10 9 9 9 9 9 8 8 9 9 9 8 8
16 16 16 16 16 17 17 19 21 20 19 18 18 19 18 18 18 18 18 17 17 16 16 16 15 15 15 14 14 13 13 13 12 12 12 11 11 10 10 10 9 9 9 9 9 9 9 8 8
17 16 16 17 17 17 17 17 21 21 20 19 18 18 18 18 19 18 18 18 18 18 17 17 17 17 16 16 15 14 14 14 13 13 12 12 12 12 11 11 10 9 9 9 8 9 9 9 9
17 17 18 18 18 17 17 18 22 23 22 21 20 20 19 19 19 19 19 19 19 19 19 19 19 18 18 17 16 16 15 14 14 13 13 12 12 11 10 10 11 11 10 10 10 10 9 9 9
19 19 19 19 19 19 20 22 23 24 24 23 22 21 21 21 21 21 20 20 20 20 20 20 20 19 19 18 18 17 16 15 15 14 14 13 12 11 10 11 11 11 11 10 10 10 10 10 9
Wind_Direction
63 61 57 53 43 30 18 9 0 350 341 333 325 321 318 307 298 292 289 285 283 282 281 276 276 276 278 279 279 276 274 279 277 273 272 271 267 261 266 264 266 263 262 263 268 268 265 262 259
48 35 38 21 21 20 360 356 350 343 337 329 323 321 319 309 299 293 287 283 283 284 282 279 276 275 277 277 277 276 275 277 276 275 273 272 272 265 266 265 263 262 262 264 268 267 266 265 265
12 359 1 354 10 8 349 345 342 339 333 329 326 323 322 314 304 296 289 286 283 283 283 281 278 278 279 281 277 274 274 275 275 277 278 276 273 268 265 263 263 263 265 265 268 264 264 266 266
329 330 336 6 1 349 342 338 335 333 330 328 325 322 322 317 312 305 297 294 288 283 281 281 282 280 282 285 279 276 276 277 277 280 280 276 273 270 265 264 265 265 268 268 268 267 264 266 265
305 314 330 2 347 336 337 330 327 326 326 326 325 323 321 319 315 312 308 303 297 290 285 283 284 285 283 285 283 279 279 277 276 278 278 274 270 269 271 269 269 269 269 265 266 267 268 269 267
300 311 330 341 329 323 324 323 321 323 324 324 325 325 324 319 314 312 308 305 303 299 292 290 288 290 289 286 285 284 280 279 275 277 276 274 272 272 273 270 268 269 268 266 266 267 266 267 267
294 303 309 319 313 315 317 318 320 325 326 325 324 323 324 318 314 309 307 307 304 302 299 293 288 290 292 291 288 287 286 283 279 275 274 273 272 271 273 270 269 268 268 267 268 267 267 265 264
279 293 302 316 315 316 315 318 319 320 320 321 322 322 323 321 317 313 311 311 310 306 302 297 292 289 289 292 291 290 288 287 284 278 277 275 270 271 272 270 269 269 268 270 267 265 265 265 267
276 288 301 310 314 315 315 313 313 316 317 319 321 321 321 321 321 320 319 317 314 312 306 303 300 299 295 294 294 293 289 286 285 282 280 276 274 271 269 270 268 270 271 270 268 268 267 264 269
273 286 296 303 308 309 312 312 312 313 315 316 317 318 319 320 321 321 320 319 317 316 312 307 305 305 303 300 299 296 290 286 285 283 279 280 277 273 270 270 269 271 272 270 268 270 272 272 273
271 278 286 292 296 301 303 307 308 309 312 315 317 316 317 317 317 318 318 318 317 316 316 311 306 304 304 300 297 294 291 288 286 285 281 279 275 273 271 271 272 272 273 270 271 270 274 276 277
270 274 279 285 291 296 302 305 307 309 311 312 313 313 312 314 314 315 318 319 317 314 314 312 309 307 304 302 297 293 292 286 285 284 279 276 274 272 271 274 274 274 274 273 272 272 275 276 278
266 271 275 282 288 294 298 303 306 309 310 311 311 311 311 311 314 315 315 316 316 314 310 310 310 308 309 307 301 296 292 290 285 281 280 279 275 272 271 275 276 275 274 275 274 273 274 276 278
268 269 273 278 285 291 294 297 301 307 308 309 311 311 312 311 312 315 316 317 315 314 313 310 309 308 311 313 308 303 301 291 288 286 280 282 281 275 272 274 277 278 275 272 275 275 275 275 279
269 268 272 277 283 288 293 296 300 303 306 308 312 312 312 310 311 314 313 313 313 314 318 314 312 313 312 314 313 307 304 297 289 286 282 281 281 277 273 274 276 278 277 273 275 276 274 277 280
266 270 273 276 282 288 292 296 301 302 304 307 311 313 310 310 308 309 310 312 312 311 312 312 308 311 316 318 317 314 307 302 296 287 281 281 280 277 273 273 275 276 278 276 276 279 278 280 280
267 272 278 280 280 284 288 293 294 299 303 304 307 309 308 307 306 309 311 309 309 308 309 309 307 308 312 313 314 313 310 302 294 288 283 281 281 279 275 275 274 273 275 277 276 276 278 279 277
268 270 274 279 281 282 286 290 292 296 299 300 301 303 306 306 307 309 310 310 308 308 307 308 310 309 309 310 311 308 306 300 292 284 282 283 284 279 274 275 274 272 274 276 275 276 276 278 278
263 266 268 272 277 280 284 287 291 295 296 298 297 299 302 302 304 306 308 307 308 308 307 308 310 311 311 311 310 305 302 298 293 286 281 285 287 281 275 273 275 273 275 276 278 275 276 277 277
262 263 266 271 274 279 283 284 287 290 292 295 295 297 298 297 298 301 304 305 307 308 306 305 306 307 309 311 310 305 303 298 294 285 278 283 289 281 276 276 276 275 275 276 276 273 272 275 274
262 264 266 271 275 278 282 282 283 285 287 289 292 293 295 295 293 295 298 302 303 303 304 305 306 305 305 306 308 306 304 299 296 290 287 281 288 285 281 276 276 276 277 277 274 273 273 274 275
265 265 268 271 275 279 283 285 285 286 285 285 289 292 293 294 293 293 294 295 299 300 301 302 302 304 305 305 307 306 303 299 297 293 288 286 286 285 279 277 275 276 278 276 270 270 271 272 277
267 267 269 272 276 278 281 284 284 285 287 288 289 289 290 289 289 290 290 291 294 296 299 300 300 302 304 304 304 302 301 298 295 294 294 290 286 284 279 276 275 277 276 272 271 265 267 268 271
267 267 269 272 276 278 279 282 284 285 288 292 290 287 286 286 287 288 288 289 290 292 294 296 296 296 297 298 297 295 295 295 292 291 290 288 287 286 281 276 277 278 273 270 271 267 269 269 273
263 264 269 273 278 283 283 282 279 286 291 292 290 287 286 285 285 286 287 287 286 287 289 292 292 292 293 293 290 289 290 291 290 290 288 284 286 287 283 278 275 275 272 268 265 265 268 270 274
264 261 262 261 264 272 278 281 284 289 289 288 287 286 285 284 285 285 287 287 285 284 286 287 288 287 289 290 286 282 283 284 285 288 288 284 284 285 284 277 272 270 269 267 264 260 263 268 271
264 263 261 260 259 262 271 279 285 287 289 289 287 286 284 283 283 284 286 286 285 284 285 285 285 283 284 285 285 281 281 280 281 284 284 284 284 282 282 279 273 272 269 267 265 262 264 265 267
264 266 262 261 261 263 269 274 280 283 286 289 288 286 285 284 284 284 284 285 284 284 283 283 283 281 280 280 279 280 278 276 277 279 278 281 284 282 277 271 269 269 267 265 262 261 262 264 263
262 261 261 262 264 265 265 266 275 280 283 286 287 286 285 286 284 283 283 283 283 283 283 281 281 279 279 277 274 274 274 274 274 275 275 278 280 278 274 270 267 265 265 263 262 262 262 262 263
266 264 263 265 267 266 267 270 273 276 280 282 283 283 284 284 283 282 283 283 282 282 282 281 279 277 276 274 270 269 269 270 272 273 275 277 276 275 271 269 266 265 265 263 263 262 262 261 263
Height
5883 5882 5882 5883 5883 5882 5881 5881 5880 5880 5880 5879 5879 5878 5878 5878 5879 5881 5878 5877 5877 5877 5877 5876 5876 5876 5876 5875 5875 5875 5875 5875 5875 5874 5874 5874 5874 5875 5875 5875 5875 5875 5876 5876 5876 5876 5876 5876 5877
5883 5883 5883 5883 5882 5881 5882 5881 5880 5880 5880 5879 5878 5878 5878 5877 5877 5877 5876 5876 5876 5876 5875 5875 5875 5875 5874 5874 5874 5874 5873 5873 5873 5873 5873 5873 5873 5873 5873 5874 5874 5874 5874 5875 5875 5875 5875 5875 5876
5883 5883 5884 5883 5882 5881 5881 5881 5880 5880 5879 5879 5878 5878 5878 5877 5876 5876 5875 5874 5874 5874 5874 5873 5873 5873 5873 5872 5872 5872 5872 5872 5872 5871 5871 5871 5871 5871 5872 5872 5872 5873 5873 5873 5873 5874 5874 5874 5874
5883 5884 5884 5883 5881 5881 5881 5881 5880 5880 5879 5878 5878 5878 5876 5876 5875 5875 5874 5873 5873 5873 5872 5872 5872 5871 5871 5871 5870 5870 5870 5870 5870 5869 5869 5869 5869 5869 5870 5870 5871 5871 5871 5871 5872 5872 5872 5872 5873
5883 5883 5883 5882 5881 5881 5881 5880 5880 5879 5879 5878 5877 5877 5876 5875 5874 5874 5873 5872 5872 5871 5871 5870 5870 5870 5869 5869 5869 5868 5868 5868 5868 5868 5867 5868 5868 5868 5868 5868 5869 5869 5869 5870 5870 5870 5870 5871 5871
5883 5883 5883 5882 5881 5881 5880 5880 5879 5879 5878 5877 5877 5876 5875 5874 5873 5872 5872 5871 5870 5870 5869 5869 5868 5868 5867 5867 5867 5866 5866 5866 5866 5866 5866 5866 5866 5866 5866 5866 5867 5867 5867 5868 5868 5868 5868 5869 5869
5884 5883 5882 5881 5881 5881 5880 5879 5879 5878 5877 5877 5876 5875 5874 5873 5872 5871 5870 5870 5869 5868 5867 5867 5866 5866 5865 5865 5865 5864 5864 5864 5864 5864 5864 5864 5864 5864 5864 5865 5865 5865 5865 5865 5866 5866 5866 5867 5867
5882 5883 5881 5881 5881 5880 5880 5879 5878 5878 5877 5876 5875 5874 5873 5872 5871 5870 5869 5868 5867 5866 5866 5865 5864 5864 5864 5863 5863 5862 5862 5862 5862 5861 5861 5861 5862 5862 5862 5862 5863 5863 5863 5863 5864 5864 5864 5865 5865
5882 5883 5881 5881 5880 5880 5879 5878 5878 5877 5876 5875 5874 5873 5872 5871 5869 5869 5868 5867 5866 5865 5864 5863 5862 5862 5862 5862 5861 5860 5860 5860 5860 5859 5859 5859 5860 5860 5860 5861 5861 5861 5861 5861 5862 5862 5862 5863 5863
5881 5881 5881 5880 5880 5879 5878 5878 5877 5876 5875 5874 5873 5872 5871 5869 5868 5867 5866 5865 5864 5863 5862 5862 5861 5861 5860 5860 5859 5859 5858 5858 5858 5857 5857 5857 5858 5858 5859 5859 5859 5859 5859 5859 5860 5860 5860 5861 5861
5879 5880 5879 5879 5878 5878 5877 5877 5876 5875 5874 5873 5872 5871 5869 5868 5867 5866 5865 5863 5862 5862 5861 5860 5860 5859 5859 5858 5858 5857 5856 5856 5856 5855 5855 5855 5856 5856 5857 5857 5857 5857 5857 5858 5858 5858 5859 5859 5859
5878 5878 5878 5878 5877 5877 5876 5875 5875 5874 5873 5872 5871 5869 5868 5867 5866 5864 5863 5862 5861 5860 5860 5859 5858 5858 5857 5857 5856 5855 5855 5854 5854 5854 5853 5854 5854 5854 5855 5855 5856 5856 5856 5856 5856 5857 5857 5857 5857
5876 5877 5876 5876 5876 5875 5875 5874 5874 5872 5871 5870 5869 5868 5867 5866 5864 5863 5862 5861 5860 5859 5858 5858 5857 5856 5856 5855 5854 5854 5853 5853 5852 5852 5852 5852 5852 5853 5853 5853 5854 5854 5854 5855 5855 5855 5855 5856 5856
5875 5875 5875 5875 5874 5874 5874 5873 5872 5871 5870 5869 5868 5866 5865 5864 5863 5862 5861 5859 5859 5858 5857 5856 5856 5855 5854 5854 5853 5852 5851 5851 5851 5850 5850 5850 5850 5851 5851 5852 5852 5852 5852 5853 5853 5853 5854 5854 5854
5872 5873 5873 5873 5872 5872 5872 5872 5871 5870 5869 5867 5866 5865 5864 5863 5862 5860 5859 5858 5857 5856 5856 5855 5854 5854 5853 5852 5851 5850 5850 5849 5849 5849 5849 5849 5849 5849 5849 5850 5850 5850 5851 5851 5851 5852 5852 5852 5853
5870 5870 5871 5871 5870 5870 5872 5870 5869 5868 5867 5866 5865 5863 5862 5861 5860 5859 5858 5857 5856 5855 5854 5854 5853 5852 5852 5851 5850 5849 5848 5847 5847 5847 5847 5847 5847 5848 5848 5848 5848 5848 5849 5849 5850 5850 5850 5850 5851
5868 5868 5868 5869 5869 5868 5869 5868 5867 5866 5865 5864 5863 5862 5861 5859 5858 5857 5857 5856 5855 5854 5853 5853 5852 5851 5850 5849 5848 5847 5846 5845 5845 5845 5845 5845 5846 5846 5846 5846 5847 5847 5847 5848 5848 5848 5848 5849 5849
5866 5866 5866 5866 5866 5866 5866 5865 5865 5864 5863 5862 5861 5860 5859 5858 5857 5856 5855 5854 5853 5852 5852 5851 5850 5849 5849 5848 5847 5846 5845 5844 5844 5844 5844 5844 5844 5844 5844 5845 5845 5845 5846 5846 5846 5847 5847 5847 5847
5863 5864 5864 5864 5863 5864 5863 5863 5862 5862 5861 5860 5859 5858 5857 5856 5855 5854 5853 5852 5852 5851 5850 5849 5849 5848 5847 5846 5845 5844 5843 5842 5842 5842 5842 5842 5842 5843 5843 5843 5844 5844 5844 5845 5845 5845 5845 5845 5846
5860 5861 5861 5861 5861 5861 5860 5860 5859 5859 5858 5858 5857 5856 5855 5854 5853 5852 5851 5851 5850 5850 5849 5848 5847 5846 5845 5844 5843 5843 5842 5841 5841 5840 5840 5841 5841 5841 5841 5842 5842 5842 5843 5843 5843 5843 5844 5844 5844
5857 5857 5858 5858 5858 5857 5857 5857 5856 5856 5856 5855 5854 5853 5852 5852 5851 5850 5850 5849 5849 5848 5847 5846 5845 5844 5843 5842 5842 5841 5840 5839 5839 5839 5838 5839 5839 5839 5840 5840 5841 5841 5841 5842 5842 5842 5842 5842 5843
5853 5854 5854 5855 5854 5854 5854 5854 5853 5852 5853 5852 5852 5851 5850 5849 5849 5848 5848 5847 5847 5846 5845 5844 5843 5842 5841 5840 5840 5839 5839 5838 5838 5838 5838 5838 5838 5838 5838 5838 5839 5839 5840 5840 5840 5840 5841 5841 5841
5850 5850 5851 5851 5851 5851 5851 5851 5851 5849 5849 5849 5849 5848 5847 5846 5846 5846 5845 5845 5844 5843 5843 5842 5841 5840 5839 5838 5838 5837 5837 5837 5836 5836 5836 5836 5836 5836 5836 5837 5837 5837 5838 5838 5839 5839 5839 5840 5840
5847 5848 5848 5848 5848 5849 5849 5848 5847 5845 5845 5845 5845 5844 5844 5843 5843 5843 5842 5842 5841 5841 5840 5839 5838 5838 5837 5836 5836 5835 5835 5834 5834 5834 5835 5835 5834 5834 5835 5835 5835 5836 5836 5837 5837 5837 5838 5838 5839
5844 5845 5845 5844 5844 5845 5845 5845 5844 5842 5842 5842 5841 5841 5840 5840 5840 5839 5839 5839 5838 5838 5837 5836 5836 5835 5834 5834 5833 5833 5832 5832 5832 5832 5833 5833 5833 5833 5833 5833 5833 5834 5834 5834 5835 5836 5836 5837 5837
5840 5841 5842 5842 5842 5842 5841 5841 5841 5840 5839 5838 5838 5837 5837 5836 5836 5836 5835 5835 5835 5834 5833 5833 5832 5832 5831 5831 5830 5830 5830 5830 5830 5830 5830 5830 5830 5830 5830 5831 5831 5831 5832 5832 5833 5834 5834 5835 5835
5836 5837 5838 5838 5838 5839 5839 5838 5836 5836 5836 5835 5834 5834 5833 5833 5832 5832 5831 5831 5831 5830 5830 5829 5829 5828 5828 5828 5827 5827 5827 5827 5827 5827 5828 5828 5828 5828 5828 5828 5829 5829 5830 5830 5831 5832 5832 5833 5833
5832 5833 5834 5834 5834 5835 5836 5835 5833 5831 5831 5831 5830 5830 5829 5829 5828 5828 5828 5827 5827 5826 5826 5825 5825 5824 5824 5824 5824 5824 5824 5824 5824 5825 5825 5825 5825 5825 5825 5826 5827 5827 5828 5828 5829 5830 5830 5831 5831
5828 5829 5829 5829 5830 5831 5831 5832 5829 5827 5827 5827 5826 5826 5825 5825 5824 5824 5823 5823 5822 5822 5821 5821 5820 5820 5820 5820 5820 5820 5821 5821 5821 5821 5822 5822 5822 5823 5823 5823 5824 5825 5825 5826 5827 5827 5828 5828 5829
5822 5823 5824 5825 5825 5826 5826 5828 5824 5823 5822 5822 5821 5821 5820 5820 5819 5819 5818 5818 5817 5817 5816 5816 5815 5815 5815 5815 5815 5816 5816 5817 5817 5818 5818 5819 5819 5820 5820 5821 5822 5822 5823 5823 5824 5825 5825 5826 5827